Location: Peterborough
(44.3091°N, 78.3197°W)
Time: 00:12:16
(UTC-05:00)

Vanguard 1 Rocket - Pass Details

Date: 10 December 2023
Orbit: 654 x 4218 km, 34.3° (Epoch: 24 February)

Event Time Altitude Azimuth Distance (km) Brightness Sun altitude
Exits shadow 00:58:49 22° 128° (SE) 6,154 11.4 -66.0°
Drops below altitude 10° 01:10:59 10° 95° (E) 6,509 11.8 -64.8°
Sets 01:16:53 0° 82° (E) 7,037 12.2 -64.1°
